Location: Geçitköy
(36.7327°N, 29.8010°E)
Time: 05:44:23
(UTC+00:00)

NOSS 3-4 (C) - Pass Details

Date: 12 January 2026
Orbit: 773 x 1438 km, 63.4° (Epoch: 26 December)

Event Time Altitude Azimuth Distance (km) Brightness Sun altitude
Rises 15:40:58 0° 196° (SSW) 3,244 6.8 -7.4°
Reaches altitude 10° 15:43:24 10° 191° (S) 2,308 6.0 -7.8°
Maximum altitude 15:48:24 51° 117° (ESE) 985 3.3 -8.8°
Drops below altitude 10° 15:53:43 10° 42° (NE) 2,437 5.1 -9.8°
Enters shadow 15:54:08 - 41° (NE) 2,600 5.2 -9.8°
